Location: *
(33.8649°S, 62.1526°E)
Time: 12:53:22
(UTC+00:00)

Okean 1-7 - Pass Details

Date: 17 January 2021
Orbit: 592 x 617 km, 82.5° (Epoch: 02 March)

Event Time Altitude Azimuth Distance (km) Brightness Sun altitude
Exits shadow 21:53:06 43° 151° (SSE) 878 4.1 -29.5°
Drops below altitude 10° 21:56:14 10° 168° (SSE) 2,009 6.5 -29.1°
Sets 21:58:30 0° 170° (S) 2,922 7.5 -28.9°
